Measat 3A

operational
NORAD ID: 35362 Int'l Des: 2009-032 Owner: MEAS Country: MY
HEOCIRCULARGSOGEO

Über Measat 3A

Beschreibung wird geladen...

Live-Position

3D-Globus wird geladen...

Nächste Überflüge

Höhenverlauf

Altitude vs Time

uPlot chart will show altitude changes over time

Zweizeiliger Elementsatz

1 35362U 09032A 26071.17561113 -.00000110 00000-0 00000-0 0 9997
2 35362 0.0386 328.2733 0003757 35.3752 29.3800 1.00272174 7051
Epoch: 12. März 2026 • Age: 32 hours

Aktueller Status

Höhe 35785.4 km
Geschwindigkeit 3.07 km/s
Subsatellitenpunkt -0.02°S, 160.04°E
Startdatum 21. Juni 2009
Alter 16.7 years
Typ other

Technische Details

Klassifizierung Payload
Masse 2366.00 kg
Trockenmasse 1080.00 kg
Gesamtmasse 2366.00 kg
Länge 4.20 m
Durchmesser 2.30 m
Spannweite 22.40 m
Form Box + 2 Pan
Hersteller OSCD
Bus-Typ OSC Star 2.4
Phasenstatus In Orbit
Besitzer/Staat MEAS/MY

Große Konstellationen

Loading constellations...